Temp
61 61 61 61 61 61 61 61 61 61 61 61 61 61 62 62 61 59 62 74 72 74 76 81 79 77 74 71 74 72 59 54 57 64 66 74 72 78 83 80 83 86 83 83 85
61 61 61 61 61 60 60 60 61 61 61 61 61 61 61 61 57 61 74 74 75 75 77 73 73 74 68 67 70 68 55 59 70 71 66 76 77 77 77 78 78 81 85 86 85
60 60 60 60 60 60 60 60 60 60 61 61 61 61 61 60 60 71 77 77 75 76 76 75 72 69 60 62 66 64 62 70 76 77 77 79 75 79 73 68 77 77 81 86 85
60 60 60 60 60 60 60 60 60 60 61 61 61 61 61 59 57 77 77 75 75 78 75 71 67 61 57 58 65 61 72 73 79 82 74 77 83 78 76 75 83 85 85 85 84
59 59 59 59 59 59 59 59 59 59 60 61 61 61 58 58 64 80 77 76 76 78 75 70 62 63 57 62 66 64 71 75 79 77 74 78 79 80 76 80 84 86 86 85 84
58 58 59 59 59 59 59 59 58 59 59 60 61 61 59 57 79 80 78 76 78 75 76 71 70 69 65 64 63 69 71 73 74 75 73 77 77 78 77 82 82 83 83 85 85
58 58 58 58 58 59 59 58 58 58 60 61 62 65 63 65 81 78 77 76 79 80 77 77 76 71 68 67 68 70 66 71 71 71 73 77 70 76 80 82 80 83 81 85 85
58 57 58 58 58 59 59 59 59 59 61 62 63 62 60 77 76 75 81 81 84 83 82 83 81 73 68 68 70 66 61 56 69 72 78 77 64 77 78 79 79 82 80 82 81
57 56 57 57 58 59 59 59 60 61 62 63 57 58 61 79 80 84 82 83 85 85 85 93 77 68 71 61 57 57 54 58 66 70 70 70 66 75 76 77 77 79 79 81 81
57 56 56 57 58 59 58 59 61 60 62 68 70 60 67 76 83 86 86 86 83 80 78 72 65 61 58 55 47 53 55 57 60 71 69 68 69 72 77 77 77 77 80 79 78
57 56 56 57 57 58 55 56 59 59 60 64 68 68 78 85 88 82 86 82 82 75 63 66 58 53 59 61 62 61 60 61 64 71 67 63 66 71 67 70 69 70 69 68 67
57 56 57 57 57 58 54 60 69 71 62 70 72 73 80 82 78 82 86 74 70 63 63 61 56 66 68 68 66 63 61 60 65 71 68 61 57 62 64 64 65 65 65 66 68
56 56 56 57 57 53 58 66 73 76 61 73 73 73 76 79 76 78 82 76 69 62 62 58 66 74 70 66 65 62 61 60 61 66 65 62 54 57 63 65 66 67 68 68 67
55 55 56 57 56 58 62 73 72 73 52 65 70 77 79 77 73 84 84 78 69 66 67 64 72 72 69 66 67 56 67 68 66 58 53 62 41 53 57 59 61 62 62 63 65
55 56 56 57 53 62 74 71 69 70 41 71 74 89 82 75 75 76 81 75 66 68 66 63 68 67 65 68 71 66 69 65 64 56 52 55 43 47 56 50 51 55 59 60 62
55 56 56 53 50 61 69 68 70 53 44 67 76 75 72 74 75 78 76 75 72 66 67 66 74 69 66 72 71 71 65 61 56 53 43 47 44 42 44 47 50 54 56 58 60
56 56 55 64 64 69 70 67 51 44 69 66 68 73 70 68 70 70 62 58 52 51 52 62 64 69 72 63 66 63 53 44 44 43 40 51 43 37 46 49 50 50 52 53 55
54 55 52 62 63 65 66 57 42 61 62 73 72 72 64 68 66 65 61 53 58 55 50 49 50 64 70 61 55 57 52 43 38 39 43 52 39 36 48 51 52 51 48 49 49
52 51 55 64 66 65 59 45 48 58 66 65 68 63 63 66 66 60 53 53 56 55 47 46 53 68 70 67 63 55 48 53 46 45 44 41 41 47 47 46 46 45 45 44 46
55 58 61 71 69 63 53 48 56 66 67 66 57 62 55 61 60 56 52 56 56 59 53 49 47 62 66 66 64 57 59 47 43 37 34 38 35 30 36 39 41 40 40 41 43
57 57 68 71 69 57 47 51 60 68 67 61 58 57 58 58 58 52 50 54 58 58 55 47 47 52 58 51 47 49 45 45 43 40 37 31 29 41 37 38 37 38 39 39 40
55 53 70 70 56 50 50 59 61 65 66 64 60 58 55 55 52 49 49 53 59 56 49 48 44 41 48 55 58 52 44 42 37 37 37 32 25 42 41 39 39 37 40 40 41
54 56 69 68 49 47 53 60 60 60 60 60 57 58 58 52 45 50 51 57 57 53 46 47 40 35 40 46 52 44 44 44 40 36 32 30 26 42 42 40 38 37 39 39 40
55 53 57 57 53 51 50 52 53 62 59 59 57 58 53 48 48 46 49 56 57 55 57 51 40 38 34 39 44 38 41 42 36 28 29 29 31 34 36 37 35 36 37 38 39
54 51 53 48 52 51 51 53 53 52 57 57 54 53 51 42 44 44 48 51 56 57 51 45 38 43 45 46 44 41 39 39 35 35 29 31 30 33 36 36 34 37 38 38 39
52 50 52 49 52 51 47 48 51 53 50 51 47 52 49 41 45 44 48 46 43 49 44 45 39 46 40 44 43 37 39 38 36 36 34 34 31 37 40 39 36 36 36 36 38
53 52 52 47 47 45 44 49 52 53 52 54 52 49 48 50 52 50 49 48 47 45 42 42 38 35 31 43 41 29 34 34 34 34 33 24 29 35 35 37 34 34 35 36 37
MSLP
1016.01 1015.78 1015.53 1015.29 1015.09 1014.97 1014.85 1014.77 1014.68 1014.57 1014.53 1014.49 1014.34 1014.17 1013.91 1013.65 1013.19 1013.12 1012.00 1009.50 1009.29 1008.84 1009.05 1008.83 1008.61 1008.71 1008.69 1008.83 1008.73 1009.23 1010.05 1010.35 1010.08 1009.41 1008.58 1008.09 1008.34 1007.84 1007.85 1007.51 1007.22 1007.09 1007.64 1008.64 1009.23
1015.87 1015.62 1015.37 1015.11 1014.91 1014.80 1014.71 1014.59 1014.57 1014.50 1014.41 1014.33 1014.25 1013.99 1013.77 1013.54 1013.18 1011.73 1008.21 1008.07 1008.43 1008.69 1008.87 1008.83 1008.85 1009.04 1009.07 1008.82 1008.72 1009.20 1009.49 1009.52 1008.67 1008.13 1008.39 1007.73 1007.59 1007.60 1007.75 1007.98 1007.77 1007.12 1006.75 1008.60 1009.87
1015.77 1015.45 1015.20 1014.98 1014.76 1014.66 1014.57 1014.44 1014.39 1014.37 1014.34 1014.25 1014.04 1013.79 1013.62 1013.43 1012.70 1009.06 1007.15 1007.47 1008.07 1008.50 1008.64 1008.66 1008.85 1009.03 1009.03 1008.82 1008.72 1008.80 1008.67 1008.37 1007.50 1007.01 1007.64 1007.35 1007.57 1007.54 1008.06 1008.26 1007.48 1007.20 1007.76 1007.76 1008.67
1015.61 1015.32 1015.07 1014.89 1014.70 1014.48 1014.34 1014.23 1014.25 1014.28 1014.15 1014.00 1013.86 1013.69 1013.55 1013.38 1011.27 1007.63 1006.97 1007.15 1008.04 1008.40 1008.65 1008.54 1008.74 1009.02 1009.03 1008.87 1008.35 1008.59 1007.85 1007.53 1006.75 1006.03 1006.20 1007.04 1006.37 1007.37 1007.42 1007.13 1006.59 1005.95 1006.03 1006.59 1007.82
1015.51 1015.20 1014.88 1014.59 1014.40 1014.25 1014.13 1014.06 1014.05 1013.98 1013.93 1013.85 1013.75 1013.64 1013.59 1012.76 1009.93 1007.01 1007.22 1007.64 1008.19 1008.38 1008.49 1008.56 1008.61 1008.74 1008.79 1008.30 1008.17 1007.99 1007.35 1006.75 1006.09 1005.92 1005.80 1005.74 1006.05 1005.98 1006.47 1006.45 1006.17 1005.37 1006.12 1006.51 1007.49
1015.33 1015.07 1014.74 1014.41 1014.19 1013.97 1013.83 1013.78 1013.78 1013.82 1013.69 1013.77 1013.63 1013.69 1013.34 1011.36 1007.30 1006.95 1007.33 1007.90 1007.89 1008.04 1008.09 1008.21 1007.90 1008.21 1008.33 1008.20 1008.21 1007.32 1007.00 1006.39 1005.76 1005.43 1005.19 1005.27 1005.13 1005.63 1006.32 1006.17 1006.38 1006.49 1006.78 1006.48 1006.51
1015.09 1014.81 1014.51 1014.19 1013.96 1013.75 1013.58 1013.50 1013.49 1013.56 1013.56 1013.65 1013.57 1013.44 1012.53 1009.05 1007.09 1007.18 1007.62 1007.18 1007.25 1007.38 1007.65 1007.65 1007.55 1008.21 1007.88 1007.83 1007.57 1007.21 1007.09 1006.15 1005.52 1005.09 1004.82 1004.66 1005.03 1004.96 1005.89 1006.21 1006.54 1006.47 1006.52 1006.39 1006.35
1014.86 1014.57 1014.27 1013.97 1013.69 1013.45 1013.34 1013.32 1013.32 1013.37 1013.46 1013.40 1013.40 1013.18 1011.08 1007.32 1007.27 1007.48 1007.07 1007.05 1006.71 1006.85 1007.04 1006.77 1006.96 1007.34 1007.50 1007.59 1007.51 1007.71 1007.42 1006.89 1005.54 1005.06 1004.41 1004.67 1005.36 1004.89 1005.36 1006.19 1006.45 1006.31 1006.41 1006.60 1006.61
1014.69 1014.41 1014.09 1013.82 1013.49 1013.22 1013.18 1013.27 1013.27 1013.34 1013.39 1013.32 1013.42 1012.72 1009.79 1006.91 1006.52 1005.87 1006.26 1006.50 1006.31 1006.35 1006.37 1006.18 1006.50 1007.36 1007.61 1008.27 1008.84 1008.83 1008.22 1007.42 1006.37 1005.14 1005.31 1005.63 1005.72 1005.32 1005.87 1006.23 1006.65 1006.80 1006.58 1006.46 1006.45
1014.48 1014.22 1013.95 1013.69 1013.42 1013.17 1013.18 1013.22 1013.14 1013.29 1013.27 1013.06 1012.47 1012.09 1008.84 1006.64 1005.73 1005.45 1005.47 1005.83 1006.25 1006.31 1006.65 1006.80 1007.59 1008.22 1008.83 1009.28 1009.61 1009.15 1008.51 1007.73 1006.97 1005.95 1005.71 1005.75 1005.90 1006.30 1008.07 1008.57 1009.33 1008.65 1007.69 1008.39 1009.13
1014.18 1013.93 1013.80 1013.55 1013.27 1013.13 1013.25 1013.28 1013.41 1012.97 1012.41 1010.78 1009.91 1009.06 1007.30 1005.87 1005.00 1005.37 1005.24 1005.69 1006.01 1006.59 1007.33 1007.61 1008.70 1008.84 1008.56 1008.33 1008.49 1008.78 1008.50 1007.87 1006.91 1006.20 1006.29 1006.71 1007.68 1010.15 1010.73 1011.03 1011.94 1011.99 1011.18 1011.85 1012.60
1013.88 1013.76 1013.56 1013.40 1013.15 1013.11 1013.30 1012.57 1010.40 1009.82 1009.97 1008.94 1008.42 1008.09 1006.81 1006.22 1005.83 1005.19 1005.22 1006.05 1006.35 1007.13 1007.67 1008.35 1008.35 1007.72 1007.96 1008.00 1008.04 1008.13 1008.05 1007.15 1006.32 1005.87 1006.64 1009.65 1012.28 1013.35 1012.96 1014.18 1014.11 1013.76 1013.67 1013.82 1014.02
1013.53 1013.39 1013.29 1013.27 1012.99 1013.23 1012.46 1010.58 1008.72 1009.07 1009.24 1007.57 1006.97 1006.71 1005.95 1005.54 1005.41 1005.08 1005.33 1005.79 1006.54 1007.24 1007.75 1008.20 1006.95 1006.79 1007.30 1007.16 1007.24 1007.08 1006.97 1006.56 1006.48 1006.46 1007.14 1008.81 1013.25 1015.19 1015.80 1015.86 1016.07 1016.19 1016.17 1015.62 1015.50
1013.30 1013.08 1013.03 1013.09 1013.20 1012.42 1011.20 1008.41 1008.25 1009.32 1009.24 1007.14 1006.00 1005.06 1005.00 1005.03 1005.18 1004.56 1005.05 1005.84 1006.50 1007.00 1007.35 1007.27 1006.52 1006.33 1005.70 1006.10 1006.12 1006.24 1006.16 1006.25 1006.83 1007.49 1008.48 1009.18 1014.35 1016.49 1017.67 1017.87 1017.88 1018.14 1017.74 1017.75 1017.44
1012.94 1012.81 1012.82 1013.07 1012.81 1011.71 1009.03 1008.23 1008.17 1008.84 1008.53 1005.65 1004.85 1003.61 1004.20 1005.11 1005.11 1005.15 1005.17 1005.77 1006.60 1007.14 1007.63 1007.05 1006.59 1006.05 1005.46 1005.32 1005.12 1005.87 1005.96 1006.63 1007.42 1008.75 1009.89 1011.95 1014.81 1018.01 1018.72 1019.60 1020.70 1020.59 1019.89 1019.62 1019.18
1012.60 1012.55 1012.71 1013.32 1012.86 1010.05 1008.90 1008.42 1008.43 1009.32 1007.46 1005.29 1004.33 1004.09 1004.85 1005.10 1005.24 1005.45 1005.94 1006.53 1007.37 1007.69 1007.58 1007.27 1006.17 1006.00 1005.55 1005.50 1005.57 1005.75 1006.53 1007.47 1008.73 1010.09 1012.45 1014.69 1016.54 1020.88 1021.55 1022.91 1022.80 1022.68 1022.35 1021.93 1021.30
1012.30 1012.25 1012.53 1011.88 1010.69 1009.26 1008.73 1008.96 1009.79 1008.87 1006.52 1005.55 1004.87 1004.69 1005.13 1005.63 1006.04 1006.43 1008.15 1009.05 1009.67 1009.41 1009.41 1008.14 1007.24 1006.51 1006.06 1006.21 1006.45 1006.70 1008.26 1009.72 1011.21 1012.42 1015.05 1016.32 1018.69 1023.45 1024.37 1024.39 1024.79 1025.14 1024.86 1024.53 1023.83
1012.21 1012.19 1011.66 1011.01 1009.53 1009.85 1009.80 1010.33 1010.24 1008.48 1007.04 1005.74 1005.24 1005.30 1005.93 1006.25 1006.95 1008.11 1009.36 1010.70 1011.00 1011.09 1010.99 1010.25 1008.82 1007.87 1007.38 1007.59 1008.02 1008.36 1009.72 1011.35 1012.65 1014.37 1016.08 1017.45 1020.69 1024.67 1025.53 1025.85 1025.99 1026.51 1026.81 1026.37 1025.53
1012.04 1011.98 1011.41 1009.29 1009.23 1010.17 1011.05 1011.33 1010.28 1009.17 1008.09 1007.29 1006.30 1006.28 1006.69 1006.97 1007.58 1009.15 1011.00 1011.95 1012.20 1012.13 1012.20 1011.56 1010.33 1008.86 1008.47 1008.57 1008.88 1009.96 1011.16 1012.07 1013.64 1015.19 1017.15 1019.99 1022.91 1023.91 1025.31 1026.35 1026.87 1027.13 1027.59 1027.18 1026.89
1011.79 1011.52 1010.19 1008.01 1008.91 1010.09 1011.41 1011.31 1010.26 1009.41 1008.81 1008.19 1007.94 1007.55 1007.79 1008.03 1008.73 1010.01 1011.98 1013.11 1013.15 1012.98 1012.78 1012.94 1012.07 1010.76 1009.89 1009.69 1010.42 1011.09 1012.63 1013.65 1015.31 1017.22 1019.23 1021.86 1024.27 1026.35 1026.69 1027.02 1027.61 1027.85 1028.35 1028.79 1028.42
1011.65 1011.27 1008.57 1007.86 1008.83 1010.80 1011.90 1011.16 1010.41 1009.81 1009.39 1009.26 1009.25 1009.19 1009.25 1009.38 1009.91 1011.74 1013.39 1014.13 1014.01 1013.79 1013.63 1013.85 1013.57 1012.93 1011.96 1013.05 1013.18 1013.33 1014.47 1015.78 1017.10 1018.83 1020.09 1023.28 1026.60 1028.42 1029.05 1029.21 1029.10 1029.00 1028.59 1028.15 1028.60
1011.74 1011.29 1008.36 1008.20 1010.08 1011.28 1011.56 1010.81 1010.51 1010.32 1010.06 1009.93 1010.02 1010.26 1010.49 1010.83 1011.91 1013.05 1014.09 1014.59 1014.66 1014.67 1014.99 1015.24 1015.30 1015.39 1015.34 1015.18 1014.75 1015.52 1016.94 1017.80 1018.94 1020.91 1021.87 1024.13 1028.29 1029.60 1029.99 1030.37 1030.68 1030.79 1030.30 1029.43 1028.67
1012.19 1011.15 1008.74 1008.75 1010.61 1011.72 1011.62 1011.62 1011.61 1011.27 1011.15 1010.99 1010.99 1011.07 1011.33 1012.14 1013.41 1014.18 1014.81 1015.36 1015.09 1015.34 1015.85 1016.13 1016.61 1017.01 1017.16 1016.89 1016.79 1018.49 1019.55 1019.61 1020.65 1022.11 1024.53 1026.23 1029.25 1030.14 1030.63 1031.06 1031.45 1031.16 1030.51 1029.87 1029.11
1012.45 1012.06 1011.09 1010.64 1011.27 1011.70 1012.29 1012.34 1012.36 1012.09 1012.05 1012.02 1011.92 1011.72 1012.25 1013.46 1014.01 1015.10 1015.57 1015.75 1015.65 1015.86 1016.22 1016.56 1017.62 1017.88 1018.42 1018.65 1019.08 1021.41 1021.74 1021.84 1022.62 1024.99 1026.91 1028.66 1029.78 1030.71 1031.05 1031.18 1031.38 1030.99 1030.55 1030.03 1029.28
1012.63 1013.13 1012.57 1012.81 1012.77 1012.85 1012.61 1012.91 1013.09 1013.19 1012.92 1012.78 1012.78 1013.09 1013.17 1014.77 1015.22 1015.84 1016.03 1016.18 1016.25 1016.41 1016.69 1017.37 1018.73 1018.99 1020.00 1020.50 1021.06 1022.85 1023.94 1024.61 1025.50 1027.13 1028.47 1029.84 1030.27 1030.63 1030.63 1030.81 1031.16 1030.79 1030.08 1029.45 1028.86
1013.32 1013.78 1013.23 1013.77 1013.58 1013.60 1014.03 1014.58 1014.13 1014.22 1014.56 1014.08 1014.75 1014.66 1014.08 1015.18 1015.37 1016.04 1016.30 1016.69 1017.15 1017.21 1017.50 1018.17 1019.37 1020.16 1021.79 1021.95 1022.41 1024.23 1025.83 1026.80 1028.02 1028.95 1029.85 1030.58 1031.39 1031.65 1031.49 1031.53 1031.74 1031.70 1031.30 1030.63 1029.82
1013.56 1013.65 1013.83 1015.56 1015.33 1015.29 1015.91 1015.42 1015.29 1014.95 1015.72 1015.52 1015.51 1015.35 1015.35 1015.91 1015.79 1016.27 1016.80 1017.24 1017.57 1017.99 1018.59 1019.01 1019.94 1021.23 1023.06 1022.88 1023.07 1025.38 1027.45 1028.20 1029.42 1030.28 1030.84 1031.55 1032.07 1031.81 1031.77 1031.73 1031.84 1031.64 1031.21 1030.69 1030.06
Wind_Speed
11 11 10 9 8 8 8 8 7 8 8 8 8 8 9 10 13 3 8 14 9 9 4 7 5 5 2 3 3 4 1 2 3 1 4 11 9 4 4 3 1 4 7 8 14
11 11 10 10 9 8 7 7 7 7 7 7 7 7 7 8 2 8 13 15 14 6 3 2 6 6 3 3 1 6 3 5 7 5 1 13 11 8 3 4 3 8 16 10 12
11 11 11 10 9 7 7 7 7 7 6 6 7 6 7 5 4 9 1 18 10 7 1 1 0 1 1 1 4 4 6 7 12 9 12 13 6 7 8 2 6 19 18 18 14
12 12 11 10 9 8 7 6 6 6 5 5 5 6 6 2 3 4 6 13 9 5 0 2 1 3 2 2 3 3 8 7 13 12 2 11 13 5 5 11 19 24 26 23 19
13 12 12 12 10 9 7 6 6 4 5 4 4 4 2 1 11 6 7 8 6 6 5 4 2 5 3 3 4 6 7 8 12 10 6 5 15 11 13 16 19 18 18 21 20
13 12 12 11 10 9 7 6 4 4 3 4 4 3 1 4 7 8 9 6 4 5 6 7 6 6 5 4 4 4 6 10 8 10 5 6 3 6 12 17 17 13 18 22 23
13 12 12 11 10 9 7 5 3 4 3 4 4 4 1 15 2 6 4 7 6 6 5 6 5 3 2 6 3 4 5 9 5 3 5 5 1 4 19 20 19 19 13 19 20
13 12 12 11 10 10 7 4 3 3 4 4 3 2 8 6 3 3 7 9 6 7 4 7 7 7 4 2 9 6 3 4 7 4 6 9 8 9 13 19 18 17 6 11 13
14 13 12 11 10 9 3 3 3 3 4 2 2 2 11 11 2 8 8 8 6 7 5 3 3 1 6 4 7 7 3 5 11 2 3 3 9 8 10 11 14 14 11 12 9
13 12 11 10 9 6 3 2 1 1 3 5 5 4 5 4 4 5 6 4 4 3 5 2 6 3 4 5 6 6 1 4 6 10 4 10 13 5 8 13 14 13 12 7 12
13 12 10 8 7 4 2 1 3 1 2 9 6 5 6 4 5 4 6 2 3 4 4 3 4 7 12 10 3 2 4 9 6 4 1 5 6 29 24 29 27 23 28 26 24
12 11 9 7 5 0 0 2 8 4 7 15 11 8 9 2 5 3 7 4 3 5 0 6 7 14 8 8 8 7 8 6 6 3 5 28 26 28 29 26 26 25 26 25 24
12 10 7 5 1 1 4 9 3 11 2 6 7 6 8 8 5 7 9 6 4 3 4 7 12 4 8 9 8 7 7 4 5 4 2 14 18 22 20 24 24 24 21 23 23
11 7 4 3 2 3 6 6 10 6 5 6 4 7 4 3 4 4 6 6 2 8 5 7 5 8 13 7 6 1 2 2 2 4 4 3 6 19 14 20 26 27 28 26 25
9 4 4 5 1 3 7 7 5 4 3 4 5 5 7 7 5 2 2 3 3 4 3 8 9 10 3 5 4 6 1 2 2 4 3 6 10 8 17 23 23 23 26 24 25
8 3 8 2 1 9 11 8 3 6 6 4 6 6 6 4 2 4 4 9 3 3 3 8 5 2 2 6 5 2 5 7 5 3 7 9 8 12 10 18 20 21 22 23 23
9 7 7 2 5 4 7 6 6 3 6 4 5 6 6 4 2 2 5 8 4 5 7 7 5 4 6 2 8 9 7 4 5 6 3 4 14 5 14 17 17 18 20 21 21
7 8 7 6 7 8 5 6 2 6 4 5 4 5 6 5 1 5 5 4 6 4 2 4 6 7 7 3 0 6 7 6 5 4 6 2 7 5 11 12 14 16 16 17 20
3 2 3 6 7 4 7 4 5 3 5 7 6 3 2 1 6 8 4 2 3 5 3 2 1 4 8 8 4 2 5 4 6 2 5 5 6 8 18 16 17 19 19 20 20
2 3 4 5 8 6 6 5 1 4 5 5 4 3 1 6 5 6 3 5 4 5 0 2 0 4 5 8 10 8 2 4 5 4 4 4 4 6 20 19 19 19 18 16 16
4 4 6 6 6 6 4 6 3 3 5 4 4 4 5 4 4 4 4 4 6 6 4 3 3 5 7 8 3 7 5 6 6 3 5 5 3 7 10 11 17 19 21 21 18
3 2 4 4 4 1 3 1 2 2 6 3 3 3 2 4 5 5 5 3 6 1 3 2 4 5 4 3 9 7 3 4 5 3 3 4 2 5 8 6 10 12 16 17 18
2 3 3 7 3 1 2 4 5 7 6 5 3 2 4 3 7 3 5 4 6 4 2 2 3 4 3 7 8 9 7 3 6 5 6 3 3 5 9 8 8 12 14 14 17
3 3 6 5 0 6 5 2 3 6 3 4 3 3 2 8 7 5 4 2 3 3 2 2 4 5 6 2 8 9 17 12 8 6 2 4 1 10 12 13 10 13 14 15 16
3 2 4 2 5 6 4 3 4 2 5 5 6 6 4 4 4 4 3 4 4 4 3 5 4 7 17 21 24 18 18 18 16 5 6 5 6 14 15 15 13 15 18 20 20
3 4 5 3 5 9 8 7 4 4 7 4 7 10 14 4 4 6 7 3 2 6 3 3 1 11 14 21 24 20 15 15 14 10 7 4 2 7 7 8 8 12 13 14 16
3 3 6 8 5 6 6 4 5 3 6 7 8 10 16 5 8 8 8 6 4 4 3 4 4 5 5 8 7 13 9 12 11 8 3 4 4 5 6 10 6 10 13 15 16
Wind_Direction
339 336 332 330 323 314 310 303 300 297 295 301 310 310 312 314 304 180 240 220 189 236 311 286 326 343 37 232 184 92 302 295 257 3 345 140 167 211 229 74 108 203 137 165 158
338 336 334 328 322 315 309 302 292 293 298 298 301 308 312 328 294 254 232 220 220 225 204 280 302 9 340 267 311 118 206 243 206 212 136 177 189 169 196 176 56 100 113 115 136
336 334 332 327 320 314 304 295 289 284 285 292 298 309 315 334 335 251 48 211 178 173 247 297 105 72 267 156 226 211 222 232 278 266 147 186 219 177 136 19 186 135 154 160 165
336 333 330 326 317 312 305 294 281 274 280 290 302 312 323 258 259 276 13 164 152 147 179 263 93 152 249 250 225 231 254 233 268 274 264 179 175 202 192 193 173 159 171 168 171
335 332 330 326 320 314 301 282 277 285 286 293 298 313 294 353 251 251 122 123 134 150 189 195 184 168 212 225 3 189 264 267 260 284 247 145 198 180 205 181 187 176 163 165 182
334 330 328 325 319 312 299 285 276 268 288 279 285 305 212 267 241 163 146 138 185 174 191 172 209 187 286 254 156 259 287 277 291 280 230 190 211 133 196 172 190 183 187 181 185
333 330 327 326 318 310 299 292 277 270 277 270 271 253 262 238 353 114 204 197 183 186 182 216 208 142 250 310 207 247 318 333 276 267 279 149 1 257 172 188 189 197 204 188 192
332 330 328 327 324 314 303 292 261 265 264 263 278 272 249 250 221 238 231 273 234 212 223 248 192 192 169 267 0 3 32 342 286 336 287 91 269 268 166 176 197 219 201 199 214
332 330 329 328 327 321 307 276 254 238 234 200 213 205 266 302 185 233 167 213 250 225 226 285 62 122 15 64 8 2 259 314 326 331 310 122 262 261 154 170 197 217 215 220 222
330 328 324 327 328 333 320 277 344 245 228 201 253 320 280 236 224 201 222 211 213 206 348 342 43 30 24 80 213 229 297 317 269 289 179 244 251 288 79 39 18 10 271 319 354
329 326 318 323 327 342 343 131 36 323 259 196 195 247 280 257 139 196 214 183 209 81 186 271 86 225 226 212 121 222 237 248 242 227 198 312 43 44 50 59 57 45 42 45 33
324 317 314 318 319 249 116 201 217 150 289 224 235 257 277 285 295 254 121 147 124 234 100 3 243 235 215 248 230 218 254 269 275 287 100 72 60 50 44 48 50 45 47 42 38
316 309 309 295 75 67 212 231 111 37 345 275 195 203 230 137 224 232 142 178 185 240 229 185 249 269 205 241 228 199 199 234 216 337 55 118 66 45 45 51 49 52 50 43 40
312 299 272 232 80 227 250 257 251 134 48 271 180 254 193 140 320 162 177 153 209 234 252 225 290 266 251 200 183 112 329 49 61 71 168 57 163 46 43 50 42 36 33 28 20
316 280 219 217 13 204 252 338 336 65 357 208 192 185 134 138 162 1 142 71 249 268 49 263 303 314 343 153 140 178 102 61 100 104 95 39 74 330 36 36 34 29 27 26 20
320 214 151 133 229 244 301 295 64 53 253 193 155 166 130 203 189 152 77 32 45 341 274 246 259 2 215 41 54 89 54 46 53 80 52 296 109 24 23 19 28 27 25 17 20
329 175 172 310 225 332 313 41 49 144 288 152 178 148 151 140 93 119 64 34 49 26 8 332 355 342 36 35 3 64 55 4 15 32 152 169 68 46 34 20 25 27 22 16 14
326 158 232 238 274 11 29 51 157 288 332 341 58 138 148 139 117 61 103 67 19 46 68 19 358 351 328 74 145 57 120 145 160 136 170 13 116 75 41 22 28 28 19 17 15
299 232 266 249 222 112 66 76 218 326 332 353 335 32 96 84 123 85 64 83 51 45 99 49 267 319 50 54 36 355 60 177 106 31 82 109 99 210 18 19 17 13 13 9 8
87 3 265 234 130 70 78 234 194 11 348 355 14 2 281 202 138 96 94 343 352 29 82 256 146 360 355 18 20 85 6 77 9 147 148 69 75 345 353 354 359 3 6 8 2
61 34 258 120 78 56 154 227 125 37 45 49 9 334 319 352 69 68 47 25 5 337 39 30 90 303 36 10 318 5 23 40 107 81 184 146 97 35 353 9 355 353 352 351 358
90 43 278 81 62 85 173 208 72 120 10 28 96 27 348 24 60 81 110 61 344 341 55 342 124 65 91 81 71 76 68 90 116 243 49 98 115 38 11 43 6 351 345 344 349
95 251 335 86 147 267 25 75 62 19 20 8 39 20 26 90 100 83 87 26 31 61 88 337 11 87 6 345 22 59 358 22 87 56 13 67 154 37 13 19 4 352 347 350 348
85 34 334 41 104 130 118 92 105 16 47 6 327 349 43 31 31 119 119 54 34 86 174 87 64 144 165 101 98 74 47 38 86 75 101 62 277 357 358 3 3 358 357 354 351
43 275 189 350 348 80 73 114 121 75 354 23 353 7 146 129 68 98 83 121 37 23 73 93 85 81 96 91 88 84 70 58 66 38 77 357 32 3 358 5 3 350 350 351 351
88 57 355 27 4 52 18 12 100 65 17 2 86 53 66 85 173 170 134 97 129 16 59 19 165 101 79 91 84 84 72 79 74 73 67 71 83 344 351 353 357 349 339 341 340
320 357 97 327 9 66 344 28 17 100 36 27 127 81 71 48 94 101 104 92 106 105 31 71 111 109 157 151 96 47 63 88 89 43 120 82 271 311 341 346 329 331 342 338 338